Погода в Тынном

Украина / Ровненская область     51°10′05″N   26°45′36″E
темп.,
°C
ветер,
м/с
пор.,
м/с
влажн.,
%
обл.,
%
осадки,
мм/ч
давл.,
гПа
погр.,
м
8 декабря, ср
ср823:00−6ссв41091100 0.0 1016350
02:00−6ссв41188100 0.0 1016375
05:00−6ссв41086100 0.1 1016397
08:00−6ссв4108487 0.1 1016399
11:00−4св5875100 0.0 1016421
14:00−3св487596 0.0 1015511
17:00−4св51085100 0.1 1015439
20:00−4св3987100 0.2 1015388
9 декабря, чт
чт923:00−4св3693100 0.3 1015310
02:00−4св3791100 0.4 1015292
05:00−3св3792100 0.1 1015296
08:00−2всв3791100 0.1 1016318
11:00−2всв3695100 0.1 1017282
14:00−1в3894100 0.4 1016305
17:00−1в3995100 0.0 1016349
20:000в4996100 0.0 1016367
10 декабря, пт
пт1023:000вюв41198100 0.0 1015418
02:00+1вюв51298100 0.0 1014414
05:00+2вюв61498100 0.0 1013517
08:00+3вюв71595100 0.0 1012640
11:00+3юв61498100 0.1 1011533
14:00+3вюв51398100 0.4 1009443
17:00+4вюв61698100 0.7 1008563
20:00+6вюв81895100 1.4 1006681
11 декабря, сб
сб1123:00+7юв81893100 0.8 1006753
02:00+7юв71693100 1.6 1006719
05:00+6ю3697100 3.6 1007213
08:00+3зюз3696100 7.9 1010296
11:00+3юз3797100 0.3 1013479
14:00+3юз3590100 0.3 1016449
17:00+3ю249485 0.0 1018290
20:00+2юз118999 0.0 102117
12 декабря, вс
вс1223:00+1св2293100 0.0 102132
02:00+2всв3893100 0.0 1021209
05:00+3ссв4799100 5.4 1019158
08:00+5в41197100 10.6 1018421
11:00+7юв51395100 4.3 1018488
14:00+6юв41191100 5.7 1017417
17:00+6юв51292100 1.2 1016468
20:00+5вюв3992100 3.1 1017493